User: anonymous   Login
Location: Brahman Valley
(40.6513°N, 111.8855°W)
Time: 11:44:43
(UTC+00:00)
Language:

Courier 1B - Orbit

View from above orbital plane
View from above orbital plane
View from above satellite
View from above satellite

Ground track
Ground track

The orbit data is extracted from the following two-line orbital elements,

1    58U 60013A   21132.57517985  .00000116  00000-0  43615-4 0  9990
2    58  28.3273 224.9074 0165039 274.1236  84.0462 13.46326945983532
Epoch (UTC): 12 May 2021 13:48:15
Eccentricity: 0.0165039
inclination: 28.3273°
perigee height: 962 km
apogee height: 1209 km
right ascension of ascending node: 224.9074°
argument of perigee: 274.1236°
revolutions per day: 13.46326945
mean anomaly at epoch: 84.0462°
orbit number at epoch: 98353

The dashed part of the orbit path shows where the satellite is in the earth's shadow,  

DLR